Theta_e
309 308 307 307 306 305 305 309 305 317 318 305 308 305 305 301 306 307 305 305 303 301 302 301 301 301 304 306 305 301 305 302 297 299 305 306 304 301 301 295 292 293 291 292
308 308 307 307 306 305 302 304 308 318 316 301 303 308 305 306 304 304 303 303 304 305 302 299 302 303 306 305 303 302 305 299 293 294 299 303 300 300 301 301 296 292 288 291
308 307 307 307 306 305 305 307 302 309 310 309 304 302 301 301 306 304 304 303 305 303 301 304 300 301 305 305 304 307 306 299 294 290 294 300 296 298 298 299 293 292 292 293
308 307 307 307 306 304 306 308 304 306 299 302 302 302 301 299 299 304 306 302 302 301 298 299 299 302 303 304 304 302 302 295 297 297 298 298 297 296 296 295 295 291 293 294
307 307 307 306 305 304 308 302 300 303 300 302 301 301 300 299 301 302 301 300 302 302 299 301 298 302 303 302 303 301 304 295 297 294 297 297 294 296 297 296 295 295 295 294
307 306 306 306 306 304 303 305 306 301 298 299 298 299 301 299 301 302 303 302 300 299 302 304 305 306 306 306 303 301 300 298 296 291 296 295 291 295 296 297 298 297 292 297
307 306 305 305 306 304 303 304 303 297 293 296 296 298 299 298 299 297 301 302 300 304 309 306 306 305 304 304 304 305 300 299 297 292 294 285 295 302 300 298 299 299 300 300
307 305 305 305 305 305 302 305 303 298 292 296 295 296 297 299 300 298 299 301 303 305 302 296 295 296 297 298 300 300 304 300 294 290 290 293 295 298 297 297 297 302 300 302
306 306 305 305 304 304 303 305 307 301 293 292 298 295 297 294 295 296 298 303 307 304 298 294 288 287 292 292 295 302 302 303 296 293 286 283 294 302 304 302 291 303 303 301
305 305 305 305 304 305 304 303 308 300 294 297 297 294 293 298 296 294 297 299 300 303 295 290 289 289 295 290 291 294 296 295 291 291 289 292 300 303 303 290 293 302 302 301
306 305 304 305 304 304 302 301 306 300 294 296 298 298 296 296 296 291 296 294 297 297 292 291 291 292 294 294 297 296 294 292 292 293 289 285 303 302 295 302 305 303 301 301
306 306 305 305 304 304 303 297 304 307 298 296 301 301 301 300 300 296 296 295 295 298 294 295 294 292 295 295 290 301 292 296 295 296 295 303 304 303 305 304 300 302 303 303
306 306 305 305 305 304 303 300 301 304 296 296 297 296 302 305 304 304 293 295 298 297 303 297 295 293 298 292 293 294 298 301 296 298 300 301 302 304 303 302 304 304 303 303
305 306 305 305 304 304 304 300 307 302 296 289 292 302 300 304 304 303 303 300 301 300 301 295 294 292 299 293 294 294 296 298 295 296 300 301 301 303 304 304 304 302 303 302
305 305 305 304 305 304 303 303 303 306 296 288 290 297 300 302 302 300 302 301 299 296 293 293 290 295 296 296 296 294 299 295 292 290 298 299 301 304 304 302 301 302 301 301
305 304 304 304 303 303 302 295 300 305 304 290 286 296 296 300 301 300 300 300 299 297 295 294 297 301 298 292 291 298 300 301 302 299 303 303 303 304 304 302 301 302 301 301
303 303 303 302 303 303 296 294 297 302 302 290 287 290 298 301 300 300 300 301 300 298 295 294 295 297 298 293 289 296 299 301 301 303 302 300 302 301 303 303 303 302 302 303
303 302 302 302 302 301 297 301 305 303 297 294 286 288 293 299 295 293 301 297 299 298 296 298 295 298 297 291 296 298 299 300 301 301 304 303 303 302 302 303 302 300 301 302
302 302 302 301 299 297 299 300 301 303 297 288 290 286 285 299 294 293 293 299 290 298 293 294 297 292 291 294 296 297 299 300 300 302 302 302 300 299 300 300 301 301 302 302
302 301 297 292 299 301 302 300 294 294 295 294 289 293 288 294 291 290 291 296 291 288 293 299 294 293 298 299 300 301 303 303 303 300 298 299 298 300 302 302 303 302 302 302
300 296 294 301 303 299 296 290 289 291 287 291 293 293 289 297 288 289 296 291 291 287 291 291 290 290 296 301 301 303 304 304 303 303 302 303 303 302 302 301 302 303 302 301
297 297 300 300 295 293 289 288 291 289 286 292 290 291 293 294 298 293 295 289 291 285 297 291 286 291 299 301 301 303 304 303 302 303 303 303 304 304 304 304 303 303 303 302
302 296 293 293 292 283 283 282 285 286 290 292 293 290 294 295 296 293 292 286 287 296 290 286 288 296 300 302 301 301 302 302 303 303 304 304 304 305 305 304 305 304 303 301
294 290 284 286 286 288 288 287 288 292 292 291 292 292 291 295 292 292 286 292 293 285 284 285 293 298 300 301 301 301 300 302 302 303 303 303 303 304 305 306 306 305 303 302
291 291 284 286 291 293 293 293 293 294 296 292 291 292 292 292 290 292 291 288 286 286 288 294 300 303 303 301 301 300 301 302 302 302 303 303 304 304 305 306 307 306 305 303
294 291 288 291 290 290 292 293 293 295 296 295 294 290 290 289 291 288 286 285 284 288 295 300 303 304 304 304 302 303 303 303 304 304 304 304 304 305 305 306 307 306 305 302
291 290 295 292 292 291 293 295 295 298 295 291 293 287 288 292 288 285 288 286 290 299 301 302 305 304 305 304 304 304 304 304 304 305 305 305 306 307 306 306 307 307 307 305
Wind_Speed
20 22 25 27 27 32 14 8 7 9 7 7 7 12 4 4 8 9 7 9 12 14 16 17 17 14 14 8 2 6 2 4 11 14 15 15 2 4 2 5 2 3 2 2
19 21 23 26 26 22 10 9 9 5 5 6 10 14 9 12 11 12 9 11 10 11 15 15 13 11 2 3 2 4 7 5 10 14 17 7 6 6 10 3 4 8 4 5
18 19 22 24 26 23 11 7 6 6 8 4 7 12 13 15 14 14 9 15 17 16 16 14 12 15 5 6 2 9 5 9 12 12 17 6 8 13 9 13 9 9 11 14
17 18 20 23 27 27 7 5 5 6 7 10 16 14 14 19 19 19 12 12 13 16 17 16 17 18 17 10 12 5 5 11 13 15 17 16 15 12 13 17 17 15 15 18
16 17 18 21 25 33 5 6 7 10 13 16 16 12 14 18 17 17 15 15 14 17 18 15 18 18 15 15 17 13 11 10 12 16 17 15 16 18 19 19 19 21 19 18
14 16 17 18 20 21 6 9 10 8 8 14 15 14 15 13 16 13 12 14 16 17 12 14 17 15 12 10 9 13 11 11 11 13 17 17 13 17 14 17 19 14 16 15
12 13 15 15 15 14 8 10 8 8 12 14 15 20 20 17 16 20 18 17 18 13 13 13 16 16 13 13 12 10 9 11 9 12 13 17 15 17 8 11 13 12 12 8
11 11 12 14 14 15 9 10 9 8 12 14 18 18 17 17 16 16 19 18 18 17 16 12 12 14 17 20 21 18 14 12 10 9 10 15 17 8 5 6 4 6 8 10
12 12 11 12 12 13 9 10 8 9 10 12 15 18 17 15 14 16 19 18 14 11 9 10 19 15 17 16 23 22 19 15 11 9 3 8 7 5 1 2 6 4 8 6
12 13 13 11 11 12 9 10 6 8 11 14 15 13 13 15 13 11 17 8 11 10 9 13 15 18 20 20 17 8 15 13 15 13 12 8 14 10 5 10 3 7 5 4
13 12 13 12 11 11 8 9 7 7 7 15 23 18 17 15 13 14 13 12 7 8 13 10 14 15 16 18 20 15 14 11 14 14 16 16 4 9 8 8 6 4 1 5
14 13 12 12 11 11 9 10 6 7 6 13 21 23 22 23 18 13 8 12 14 2 5 7 8 11 8 14 13 10 11 8 6 5 3 7 8 11 4 5 1 6 6 8
15 13 12 13 13 13 9 10 10 5 7 12 15 14 17 18 19 16 11 10 17 8 5 4 4 7 5 6 6 9 5 8 5 9 12 10 9 7 4 3 7 6 4 4
13 13 12 13 12 12 11 10 6 3 4 6 14 2 13 4 11 13 10 10 14 6 7 4 5 5 5 3 4 5 3 4 1 5 14 14 7 8 9 8 4 2 3 7
15 13 11 12 13 13 9 9 9 3 4 6 12 21 22 16 12 18 15 12 9 7 8 6 7 6 5 7 7 6 7 2 4 3 1 3 10 5 7 4 2 5 6 4
11 8 9 10 10 7 5 3 5 1 1 3 6 11 13 13 9 7 7 9 9 7 4 5 7 10 4 3 5 5 7 5 6 9 6 11 9 6 5 4 2 7 3 2
6 7 9 9 8 7 4 4 3 4 4 3 6 4 3 8 7 4 7 6 5 6 5 5 5 4 5 7 6 2 5 10 3 9 5 7 6 5 2 6 4 5 3 5
7 8 8 8 9 11 8 4 5 5 3 3 5 8 3 3 3 4 1 3 4 4 4 3 4 1 6 2 2 5 5 7 9 8 8 7 4 5 7 7 3 2 5 4
10 10 12 10 5 3 1 0 3 5 3 4 5 7 4 1 4 2 3 3 3 4 5 6 4 3 3 4 7 13 14 7 9 7 6 7 6 8 7 2 1 4 6 8
12 9 3 3 3 5 6 4 3 4 5 5 6 8 6 3 1 3 3 3 1 3 5 2 3 3 4 11 3 7 15 11 8 7 9 10 9 7 7 9 7 6 6 7
2 3 2 5 7 4 4 4 4 3 3 3 3 7 8 2 4 3 3 2 3 2 2 4 3 2 4 14 11 5 8 10 9 12 6 12 10 9 8 7 7 8 8 8
7 7 12 7 4 4 5 4 3 4 2 0 4 5 5 6 5 3 1 1 1 3 2 2 2 2 4 9 8 10 7 13 12 14 13 11 11 11 9 10 9 8 7 7
6 4 4 2 3 1 3 6 2 3 6 3 5 6 3 4 5 3 3 3 4 1 2 3 1 4 3 9 10 12 11 13 14 14 13 13 12 10 10 10 9 9 8 8
4 3 4 2 4 6 4 6 6 7 6 6 7 4 3 3 3 3 3 4 2 3 2 4 3 7 6 9 12 12 14 12 11 11 12 12 9 8 8 7 7 8 8 7
4 3 4 3 4 5 3 5 3 4 4 3 3 3 3 4 2 3 4 3 2 4 4 5 3 11 9 12 12 12 10 9 11 9 8 7 7 6 6 4 4 7 7 4
4 4 4 2 5 4 7 6 5 3 1 3 3 4 4 3 4 4 6 5 4 3 4 6 3 10 10 10 9 10 9 8 7 8 5 4 5 3 4 1 5 5 6 3
4 3 7 7 8 8 7 7 6 6 1 4 2 4 5 3 2 2 4 3 3 6 8 7 8 8 8 7 7 9 9 8 6 6 3 4 3 4 2 4 4 3 4 3
Wind_Direction
351 348 347 346 351 345 340 306 302 13 347 289 236 251 17 351 314 302 245 283 281 283 293 294 287 276 279 65 12 280 51 319 293 284 309 309 290 300 87 270 215 161 139 291
349 348 346 343 347 4 320 305 289 163 298 316 339 347 329 320 293 286 277 273 266 281 283 287 277 280 255 103 270 25 353 242 276 272 256 39 354 292 222 183 63 254 282 244
349 348 346 342 339 347 326 285 310 1 327 185 338 340 313 298 302 289 270 292 287 283 277 264 270 273 240 173 91 69 30 279 264 269 286 159 220 220 239 191 207 252 224 266
349 347 346 343 337 338 307 266 339 1 302 320 333 304 293 289 288 285 265 257 275 269 270 263 265 264 247 179 142 180 191 251 263 267 272 270 278 282 260 225 230 241 271 282
346 345 345 344 342 333 238 331 344 341 300 285 285 282 279 281 286 295 289 292 286 279 277 270 266 277 276 258 178 198 204 243 271 275 272 279 271 267 261 257 272 277 270 261
340 342 344 345 349 341 322 360 335 303 290 293 283 278 278 303 309 307 297 294 276 278 302 345 325 316 312 315 290 189 221 240 228 257 281 288 270 271 268 279 255 263 265 280
325 336 338 341 344 354 322 309 314 298 289 298 295 306 309 303 290 293 296 295 291 285 299 327 301 277 266 269 255 264 254 251 254 263 271 268 274 285 254 296 300 311 337 349
318 323 330 332 337 339 310 307 294 296 292 299 295 294 307 316 306 282 272 261 267 288 296 292 279 259 257 252 253 249 226 239 261 262 251 275 274 282 177 296 279 49 47 19
319 314 310 318 329 332 307 305 329 296 289 267 317 322 303 290 285 284 278 280 300 241 266 258 257 250 253 244 236 224 228 209 232 233 222 242 245 92 124 168 235 44 45 85
315 319 311 305 318 333 312 295 336 296 292 282 296 315 326 312 302 305 305 10 317 314 243 247 253 258 253 254 249 254 221 216 215 233 236 253 254 150 187 228 117 82 43 15
303 310 312 309 307 313 315 296 302 288 284 285 277 291 299 291 278 276 289 320 265 278 252 258 270 256 256 260 259 202 227 210 222 227 236 234 156 136 268 90 135 130 324 328
297 294 300 301 294 296 308 288 326 320 266 288 302 286 275 271 263 272 289 291 300 285 302 1 313 265 263 260 251 241 199 196 235 159 165 127 134 135 154 82 354 43 25 21
296 284 290 292 290 289 281 293 295 301 281 278 262 286 292 229 235 238 255 249 265 281 296 289 280 270 344 267 272 339 333 137 243 152 153 138 155 154 158 107 65 38 356 289
296 288 282 289 284 291 276 285 285 281 280 282 288 188 324 296 263 246 225 247 281 279 295 286 272 277 335 1 315 308 356 266 208 192 140 165 155 75 63 77 75 275 307 12
294 284 275 288 290 283 275 276 274 257 265 311 303 302 285 259 272 232 235 233 249 259 246 249 250 293 262 263 259 200 184 339 345 50 34 75 138 103 97 88 32 28 17 342
281 281 290 300 306 284 283 269 11 140 263 293 295 339 291 263 241 233 238 245 248 253 239 244 260 243 249 273 265 236 164 178 294 115 131 111 128 113 169 87 21 55 311 16
296 296 299 296 296 269 248 292 205 297 321 268 272 263 271 12 249 203 257 240 210 232 235 234 246 280 268 241 252 38 78 148 175 131 109 85 94 105 248 95 88 147 275 265
302 300 291 291 292 274 261 247 300 214 249 264 270 277 101 193 305 310 296 216 209 217 240 246 252 242 250 244 220 105 316 102 121 102 95 137 176 202 111 102 99 311 268 345
304 296 286 278 233 235 210 262 235 219 243 277 254 292 327 29 14 311 284 230 223 207 229 223 172 233 208 241 123 132 243 125 124 151 179 157 104 84 71 83 74 354 8 17
300 284 223 236 230 142 178 200 199 197 209 228 270 336 321 335 41 259 235 202 215 258 219 129 205 253 245 77 353 151 91 142 197 190 162 124 102 77 60 44 35 34 30 33
274 290 273 309 150 235 207 234 214 190 218 234 277 314 317 253 253 252 234 164 227 264 156 179 186 148 126 163 146 115 163 172 93 120 100 73 69 66 64 63 59 55 48 41
318 291 284 262 245 251 262 251 220 212 123 279 309 303 326 303 264 258 276 285 348 258 176 152 91 292 203 150 157 115 156 131 142 101 94 92 90 88 82 69 62 59 56 45
273 218 259 245 247 3 250 358 355 355 354 343 331 320 294 273 262 335 9 7 247 141 46 17 116 200 270 147 151 117 109 101 102 107 107 105 95 83 77 75 65 55 47 54
269 274 307 272 343 20 18 4 348 333 338 335 322 314 293 305 325 357 276 228 272 52 63 105 189 196 196 120 119 118 105 107 121 127 132 101 101 97 87 79 64 60 46 43
284 344 333 341 29 300 32 9 339 284 295 313 290 261 243 268 307 261 310 320 74 28 71 97 194 93 82 95 90 101 123 148 135 146 127 147 128 111 100 78 78 72 76 46
257 262 285 269 357 25 16 357 13 328 26 264 223 269 281 345 345 354 2 350 36 89 98 98 300 119 100 108 134 147 128 112 114 108 137 117 133 179 88 334 87 79 133 167
274 301 306 358 353 2 24 19 9 346 217 335 257 4 19 3 356 4 339 356 330 99 98 95 89 65 104 108 114 115 121 114 136 144 152 150 259 40 341 258 80 98 123 163